WORLDVIEW 2 DEB

基本信息
目录编号:
43386
目录名称:
WORLDVIEW 2 DEB
国际标识:
2009-055M
轨道中心:
EARTH
物体状态:
已陨落(2023-08-26)
发射日期:
2009-10-08 UTC
轨道信息
数据来源: 国际轨道数据
星历时间: 2023-08-20T08:28:42+0800
半长轴: 6763.055km
偏心率: 0.0042658
轨道倾角: 98.507°
近地点辐角: 291.107°
升交点赤经: 15.447°
平近点角: 68.563°
近地点: 356.07km
远地点: 413.77km
周期: 92.252分钟
每日圈数: 15.609479
详细信息
发射场:
AFWTR
轨道高度:
LEO
数据来源:
AOE Integration Group
参考系:
TEME
时间系统:
UTC
历元类型:
SGP4
2D轨道图
3D轨道图
轨道高度分析图
轨道倾角分析图
轨道综合分析图
查看轨道综合分析图